DW0088 Weather Reports


Display with metric or nautical units.
time (UTC)temp
F
wind
direction
speed
MPH
gust
MPH
rain 1hr
in
rain 24hr
in
rain mn
in
humidity
%
barometer
mb
20260905111000 68 235 9.0 19.0 0.00 0.06 0.00 68 1021.7
20260905110000 68 231 9.0 16.0 0.00 0.06 0.00 69 1021.7
20260905105000 68 229 9.0 19.0 0.00 0.06 0.00 70 1021.5
20260905103000 67 221 7.0 17.0 0.00 0.06 0.00 76 1021.3
20260905102000 67 229 7.0 18.0 0.00 0.06 0.00 76 1021.2
20260905101000 66 220 7.0 15.0 0.00 0.06 0.00 79 1021.3
20260905095000 66 214 8.0 17.0 0.00 0.06 0.00 81 1021.1
20260905093000 65 234 8.0 17.0 0.00 0.06 0.00 81 1020.9
20260905092000 65 221 8.0 16.0 0.00 0.06 0.00 82 1020.7
20260905091000 66 209 7.0 17.0 0.00 0.06 0.00 83 1020.5
20260905090000 65 197 6.0 14.0 0.00 0.06 0.00 85 1020.5
20260905085001 64 194 7.0 16.0 0.00 0.06 0.00 85 1020.4
20260905084000 64 190 7.0 13.0 0.00 0.06 0.00 86 1020.5
20260905082001 63 196 6.0 12.0 0.00 0.06 0.00 87 1020.2
20260905081000 63 201 6.0 12.0 0.00 0.06 0.00 88 1020.1
20260905080000 62 194 6.0 13.0 0.00 0.06 0.00 89 1020.1
20260905075001 62 199 6.0 13.0 0.00 0.06 0.00 89 1020.0
20260905073001 61 190 6.0 12.0 0.00 0.06 0.00 91 1019.7
20260905071000 60 188 5.0 14.0 0.00 0.06 0.00 92 1019.6
20260905070000 59 188 5.0 7.0 0.00 0.06 0.00 92 1019.6
20260905065001 59 189 5.0 9.0 0.00 0.06 0.00 92 1019.4
20260905063000 58 189 5.0 9.0 0.00 0.06 0.00 94 1019.2
20260905062000 58 188 4.0 8.0 0.00 0.06 0.00 94 1019.2
20260905061001 57 187 4.0 8.0 0.00 0.06 0.00 94 1018.8
20260905060001 57 183 5.0 7.0 0.00 0.06 0.00 94 1018.8
20260905054001 56 179 4.0 7.0 0.00 0.06 0.00 95 1018.5
20260905053002 56 183 4.0 7.0 0.00 0.06 0.00 95 1018.5
20260905051000 56 183 3.0 6.0 0.00 0.06 0.00 94 1018.1
20260905050002 56 176 4.0 7.0 0.00 0.06 0.00 94 1018.1
20260905045001 56 185 4.0 7.0 0.00 0.06 0.00 94 1018.1
20260905044000 56 183 3.0 6.0 0.00 0.06 0.00 93 1017.9
20260905043002 56 178 3.0 5.0 0.00 0.06 0.00 93 1017.9
20260905042001 56 182 4.0 7.0 0.00 0.06 0.00 93 1017.9
20260905041002 56 187 3.0 6.0 0.00 0.06 0.00 92 1017.8
20260905034001 56 188 4.0 6.0 0.00 0.06 0.00 93 1017.6
20260905033001 56 184 4.0 6.0 0.00 0.06 0.00 93 1017.6
20260905032001 56 187 3.0 6.0 0.00 0.06 0.00 93 1017.2
20260905031001 56 187 4.0 7.0 0.00 0.06 0.00 93 1017.2
20260905030002 56 184 3.0 6.0 0.00 0.06 0.00 93 1017.2
20260905025001 57 186 3.0 5.0 0.00 0.06 0.00 93 1017.2
20260905024002 57 186 3.0 5.0 0.00 0.06 0.00 93 1017.1
20260905023001 57 182 3.0 5.0 0.00 0.06 0.00 93 1017.1
20260905022001 57 182 3.0 5.0 0.00 0.06 0.00 93 1017.1
20260905021001 57 175 4.0 6.0 0.00 0.06 0.00 93 1017.0
20260905020002 57 173 4.0 6.0 0.00 0.06 0.00 92 1017.0
20260905015003 57 177 3.0 6.0 0.00 0.06 0.00 92 1017.0
20260905013001 57 177 4.0 5.0 0.00 0.06 0.00 92 1016.8
20260905012001 58 172 4.0 6.0 0.00 0.06 0.00 90 1016.6
20260905011001 58 177 3.0 5.0 0.00 0.06 0.00 89 1016.6
20260905010001 58 183 3.0 6.0 0.00 0.06 0.00 89 1016.6
20260905004001 59 190 3.0 6.0 0.00 0.06 0.00 89 1016.6
20260905003001 59 189 4.0 6.0 0.00 0.06 0.00 89 1016.6
20260905001002 59 192 3.0 6.0 0.00 0.06 0.00 90 1016.5
20260905000001 59 187 3.0 7.0 0.00 0.06 0.00 90 1016.5
20260904235002 59 192 3.0 6.0 0.00 0.06 0.00 90 1016.5
20260904234002 59 193 3.0 6.0 0.00 0.06 0.00 90 1016.4
20260904232002 60 195 3.0 5.0 0.00 0.06 0.00 90 1016.2
20260904230002 60 197 2.0 5.0 0.00 0.06 0.00 90 1016.2
20260904225001 61 200 2.0 5.0 0.00 0.06 0.00 90 1016.2
20260904223002 61 204 2.0 5.0 0.00 0.06 0.00 89 1016.1
20260904222001 62 211 2.0 5.0 0.00 0.06 0.00 88 1016.0
20260904221002 62 216 2.0 5.0 0.00 0.06 0.00 88 1015.8
20260904220008 62 204 3.0 6.0 0.00 0.06 0.00 88 1015.8
20260904215002 62 205 2.0 4.0 0.00 0.06 0.06 87 1015.6
20260904214002 63 198 3.0 7.0 0.00 0.06 0.06 87 1015.5
20260904213002 63 197 3.0 7.0 0.00 0.06 0.06 86 1015.5
20260904212002 63 202 3.0 6.0 0.00 0.06 0.06 85 1015.5
20260904211002 63 193 3.0 6.0 0.00 0.06 0.06 85 1015.5
20260904205002 64 216 3.0 6.0 0.00 0.06 0.06 83 1015.3
20260904204002 64 223 3.0 6.0 0.00 0.06 0.06 82 1015.1
20260904202002 64 227 3.0 6.0 0.00 0.06 0.06 82 1015.0
20260904201003 64 235 3.0 6.0 0.00 0.06 0.06 81 1014.9
20260904200003 65 241 4.0 9.0 0.00 0.06 0.06 80 1014.9
20260904195002 65 245 4.0 10.0 0.00 0.06 0.06 80 1014.8
20260904194003 65 244 4.0 10.0 0.00 0.06 0.06 80 1014.6
20260904193003 65 242 4.0 8.0 0.00 0.06 0.06 80 1014.6
20260904192002 65 251 4.0 7.0 0.00 0.06 0.06 80 1014.5
20260904191002 65 245 4.0 9.0 0.00 0.06 0.06 80 1014.5
20260904190003 65 245 4.0 9.0 0.00 0.06 0.06 82 1014.5
20260904185003 66 243 5.0 11.0 0.00 0.06 0.06 83 1014.3
20260904183002 65 243 3.0 7.0 0.00 0.06 0.06 86 1013.9
20260904182003 66 246 4.0 8.0 0.00 0.06 0.06 86 1013.9
20260904181002 66 226 2.0 6.0 0.00 0.06 0.06 86 1013.4
20260904180003 66 231 4.0 7.0 0.00 0.06 0.06 86 1013.4
20260904175003 66 219 3.0 8.0 0.00 0.06 0.06 85 1013.3
20260904174003 66 220 4.0 9.0 0.00 0.06 0.06 85 1013.1
20260904173003 67 223 4.0 9.0 0.00 0.06 0.06 85 1013.1
20260904172003 67 228 4.0 9.0 0.00 0.06 0.06 85 1012.9
20260904171002 67 233 5.0 10.0 0.00 0.06 0.06 86 1012.9
20260904170003 67 227 4.0 9.0 0.00 0.06 0.06 87 1012.9
20260904164003 67 217 6.0 12.0 0.00 0.06 0.06 88 1012.7
20260904163003 67 213 5.0 10.0 0.00 0.06 0.06 89 1012.7
20260904162003 67 215 6.0 11.0 0.00 0.06 0.06 90 1012.9
20260904161003 67 217 5.0 12.0 0.00 0.06 0.06 91 1012.8
20260904160003 66 219 5.0 12.0 0.00 0.06 0.06 91 1012.8
20260904155004 66 219 6.0 11.0 0.00 0.06 0.06 91 1012.6
20260904154002 66 210 4.0 11.0 0.00 0.06 0.06 92 1012.4
20260904153004 65 201 5.0 12.0 0.00 0.06 0.06 93 1012.4
20260904152004 65 222 6.0 13.0 0.01 0.06 0.06 93 1012.8
20260904151004 65 229 6.0 15.0 0.01 0.06 0.06 93 1012.6
20260904150004 65 231 7.0 14.0 0.01 0.06 0.06 92 1012.6
20260904145004 65 235 6.0 18.0 0.01 0.06 0.06 93 1012.4
20260904144004 65 233 7.0 15.0 0.01 0.06 0.06 93 1012.5
20260904143003 65 232 6.0 16.0 0.01 0.06 0.06 92 1012.5
20260904142004 66 234 7.0 16.0 0.01 0.05 0.05 92 1012.3
20260904141003 66 230 6.0 15.0 0.02 0.05 0.05 93 1012.1
20260904140003 65 228 7.0 18.0 0.02 0.05 0.05 94 1012.1
20260904135003 65 237 8.0 18.0 0.02 0.05 0.05 94 1011.9
20260904134003 66 237 9.0 22.0 0.02 0.05 0.05 94 1011.9
20260904133003 66 250 9.0 17.0 0.02 0.05 0.05 94 1011.9
20260904132004 67 228 13.0 26.0 0.02 0.04 0.04 93 1011.8
20260904131003 70 191 12.0 21.0 0.01 0.02 0.02 92 1011.1
20260904125005 71 190 9.0 16.0 0.01 0.02 0.02 92 1010.8
20260904122003 70 186 11.0 27.0 0.01 0.02 0.02 91 1010.9
20260904121003 72 189 9.0 17.0 0.02 0.02 0.02 89 1010.8
20260904120003 71 194 8.0 18.0 0.02 0.02 0.02 91 1010.8
20260904115003 71 196 9.0 18.0 0.02 0.02 0.02 91 1010.9
20260904114003 71 197 9.0 17.0 0.01 0.01 0.01 91 1010.9
20260904113004 70 203 9.0 20.0 0.01 0.01 0.01 92 1010.9
20260904112003 71 195 10.0 18.0 0.01 0.01 0.01 90 1010.9